• în Republica Moldova
  • Lista ţărilor
  • Pe 7 zile
  • Temperatura apei
  • Hartă satelitară
  • Meteo pe hartă
  • Widget-uri
  • user-avatar
    Intrare

    Meteo pe oră la Lenkoran

    Astăzi, 23 Iulie, Duminică

    Timp Temperatura Precipitaţii Vânt Presiune Umiditate
    00:00 +21°C° 0 mm 1 m/s 633 mmHg 34%
    01:00 +21°C° 0 mm 1 m/s 633 mmHg 33%
    02:00 +20°C° 0 mm 1 m/s 633 mmHg 32%
    03:00 +20°C° 0 mm 1 m/s 633 mmHg 31%
    04:00 +21°C° 0 mm 1 m/s 633 mmHg 30%
    05:00 +22°C° 0 mm 1 m/s 633 mmHg 28%
    06:00 +21°C° 0 mm 0 m/s 634 mmHg 27%
    07:00 +25°C° 0 mm 1 m/s 634 mmHg 24%
    08:00 +27°C° 0 mm 2 m/s 635 mmHg 21%
    09:00 +29°C° 0 mm 2 m/s 635 mmHg 18%
    10:00 +30°C° 0 mm 3 m/s 635 mmHg 17%
    11:00 +33°C° 0 mm 3 m/s 635 mmHg 16%
    12:00 +34°C° 0 mm 3 m/s 635 mmHg 16%
    13:00 +34°C° 0 mm 4 m/s 635 mmHg 16%
    14:00 +34°C° 0 mm 4 m/s 634 mmHg 16%
    15:00 +34°C° 0 mm 4 m/s 634 mmHg 17%
    16:00 +32°C° 0 mm 4 m/s 633 mmHg 21%
    17:00 +30°C° 0 mm 3 m/s 633 mmHg 25%
    18:00 +28°C° 0 mm 3 m/s 632 mmHg 28%
    19:00 +26°C° 0 mm 3 m/s 632 mmHg 35%
    20:00 +24°C° 0 mm 2 m/s 632 mmHg 41%
    21:00 +21°C° 0 mm 1 m/s 631 mmHg 47%
    22:00 +21°C° 0 mm 1 m/s 631 mmHg 46%
    23:00 +20°C° 0 mm 1 m/s 631 mmHg 44%

    Mâine, 24 Iulie, Luni

    Timp Temperatura Precipitaţii Vânt Presiune Umiditate
    00:00 +20°C° 0 mm 1 m/s 631 mmHg 42%
    01:00 +18°C° 0 mm 2 m/s 631 mmHg 45%
    02:00 +18°C° 0 mm 2 m/s 631 mmHg 47%
    03:00 +17°C° 0 mm 3 m/s 632 mmHg 49%
    04:00 +18°C° 0 mm 3 m/s 632 mmHg 54%
    05:00 +18°C° 0 mm 3 m/s 632 mmHg 60%
    06:00 +18°C° 0 mm 3 m/s 633 mmHg 65%
    07:00 +20°C° 0 mm 4 m/s 633 mmHg 58%
    08:00 +22°C° 0 mm 4 m/s 634 mmHg 51%
    09:00 +25°C° 0 mm 4 m/s 634 mmHg 44%
    10:00 +26°C° 0 mm 4 m/s 634 mmHg 41%
    11:00 +27°C° 0 mm 5 m/s 634 mmHg 38%
    12:00 +28°C° 0 mm 5 m/s 634 mmHg 35%
    13:00 +28°C° 0 mm 5 m/s 634 mmHg 37%
    14:00 +28°C° 0 mm 5 m/s 633 mmHg 38%
    15:00 +28°C° 0 mm 5 m/s 633 mmHg 39%
    16:00 +26°C° 0 mm 4 m/s 632 mmHg 46%
    17:00 +25°C° 0 mm 4 m/s 632 mmHg 53%
    18:00 +22°C° 0 mm 4 m/s 631 mmHg 60%
    19:00 +21°C° 0 mm 3 m/s 631 mmHg 66%
    20:00 +19°C° 0 mm 2 m/s 631 mmHg 73%
    21:00 +18°C° 0 mm 2 m/s 631 mmHg 80%
    22:00 +17°C° 0 mm 2 m/s 631 mmHg 77%
    23:00 +17°C° 0 mm 2 m/s 631 mmHg 73%

    Poimâine, 25 Iulie, Marţi

    Timp Temperatura Precipitaţii Vânt Presiune Umiditate
    00:00 +17°C° 0 mm 2 m/s 631 mmHg 70%
    01:00 +17°C° 0 mm 2 m/s 630 mmHg 67%
    02:00 +16°C° 0 mm 1 m/s 630 mmHg 65%
    03:00 +16°C° 0 mm 1 m/s 630 mmHg 63%
    04:00 +18°C° 0 mm 1 m/s 630 mmHg 60%
    05:00 +19°C° 0 mm 1 m/s 630 mmHg 56%
    06:00 +19°C° 0 mm 2 m/s 631 mmHg 52%
    07:00 +21°C° 0 mm 2 m/s 631 mmHg 46%
    08:00 +24°C° 0 mm 2 m/s 632 mmHg 40%
    09:00 +27°C° 0 mm 2 m/s 632 mmHg 34%
    10:00 +28°C° 0 mm 3 m/s 632 mmHg 32%
    11:00 +29°C° 0 mm 3 m/s 632 mmHg 29%
    12:00 +30°C° 0 mm 3 m/s 632 mmHg 27%
    13:00 +31°C° 0 mm 3 m/s 632 mmHg 28%
    14:00 +31°C° 0 mm 3 m/s 631 mmHg 29%
    15:00 +31°C° 0 mm 3 m/s 631 mmHg 29%
    16:00 +29°C° 0 mm 3 m/s 630 mmHg 35%
    17:00 +28°C° 0 mm 3 m/s 630 mmHg 40%
    18:00 +26°C° 0 mm 2 m/s 630 mmHg 46%
    19:00 +24°C° 0 mm 2 m/s 630 mmHg 53%
    20:00 +23°C° 0 mm 1 m/s 630 mmHg 60%
    21:00 +21°C° 0 mm 1 m/s 630 mmHg 68%
    22:00 +20°C° 0 mm 1 m/s 629 mmHg 65%
    23:00 +20°C° 0 mm 1 m/s 629 mmHg 62%

    26 Iulie, Miercuri

    Timp Temperatura Precipitaţii Vânt Presiune Umiditate
    00:00 +20°C° 0 mm 1 m/s 629 mmHg 60%
    01:00 +20°C° 0 mm 1 m/s 629 mmHg 59%
    02:00 +18°C° 0 mm 2 m/s 629 mmHg 59%
    03:00 +18°C° 0 mm 2 m/s 629 mmHg 59%
    04:00 +19°C° 0 mm 2 m/s 630 mmHg 56%
    05:00 +21°C° 0 mm 1 m/s 630 mmHg 52%
    06:00 +22°C° 0 mm 1 m/s 631 mmHg 49%
    07:00 +24°C° 0 mm 2 m/s 631 mmHg 43%
    08:00 +25°C° 0 mm 2 m/s 632 mmHg 37%
    09:00 +27°C° 0 mm 2 m/s 632 mmHg 32%
    10:00 +29°C° 0 mm 2 m/s 632 mmHg 29%
    11:00 +30°C° 0 mm 2 m/s 632 mmHg 26%
    12:00 +31°C° 0 mm 3 m/s 632 mmHg 23%
    13:00 +31°C° 0 mm 3 m/s 632 mmHg 24%
    14:00 +31°C° 0 mm 3 m/s 632 mmHg 24%
    15:00 +31°C° 0 mm 3 m/s 632 mmHg 24%
    16:00 +30°C° 0 mm 3 m/s 632 mmHg 27%
    17:00 +29°C° 0 mm 3 m/s 632 mmHg 31%
    18:00 +28°C° 0 mm 3 m/s 631 mmHg 34%
    19:00 +26°C° 0 mm 2 m/s 631 mmHg 40%
    20:00 +24°C° 0 mm 2 m/s 631 mmHg 46%
    21:00 +22°C° 0 mm 1 m/s 631 mmHg 52%
    22:00 +21°C° 0 mm 1 m/s 631 mmHg 50%
    23:00 +21°C° 0 mm 1 m/s 631 mmHg 49%

    27 Iulie, Joi

    Timp Temperatura Precipitaţii Vânt Presiune Umiditate
    00:00 +21°C° 0 mm 1 m/s 631 mmHg 47%
    01:00 +21°C° 0 mm 1 m/s 631 mmHg 47%
    02:00 +21°C° 0 mm 1 m/s 632 mmHg 47%
    03:00 +20°C° 0 mm 1 m/s 632 mmHg 47%
    04:00 +21°C° 0 mm 1 m/s 632 mmHg 46%
    05:00 +22°C° 0 mm 1 m/s 633 mmHg 44%
    06:00 +23°C° 0 mm 1 m/s 633 mmHg 42%
    07:00 +25°C° 0 mm 1 m/s 634 mmHg 36%
    08:00 +27°C° 0 mm 2 m/s 634 mmHg 31%
    09:00 +29°C° 0 mm 2 m/s 635 mmHg 25%
    10:00 +30°C° 0 mm 3 m/s 635 mmHg 23%
    11:00 +31°C° 0 mm 3 m/s 635 mmHg 21%
    12:00 +33°C° 0 mm 4 m/s 635 mmHg 19%
    13:00 +33°C° 0 mm 4 m/s 635 mmHg 20%
    14:00 +33°C° 0 mm 4 m/s 635 mmHg 20%
    15:00 +34°C° 0 mm 4 m/s 635 mmHg 21%
    16:00 +32°C° 0 mm 4 m/s 634 mmHg 24%
    17:00 +30°C° 0 mm 4 m/s 634 mmHg 27%
    18:00 +28°C° 0 mm 4 m/s 634 mmHg 31%
    19:00 +26°C° 0 mm 3 m/s 634 mmHg 36%
    20:00 +24°C° 0 mm 3 m/s 634 mmHg 41%
    21:00 +21°C° 0 mm 2 m/s 634 mmHg 47%
    22:00 +21°C° 0 mm 2 m/s 634 mmHg 46%
    23:00 +20°C° 0 mm 2 m/s 634 mmHg 45%

    28 Iulie, Vineri

    Timp Temperatura Precipitaţii Vânt Presiune Umiditate
    00:00 +20°C° 0 mm 2 m/s 634 mmHg 44%
    01:00 +21°C° 0 mm 1 m/s 634 mmHg 44%
    02:00 +20°C° 0 mm 1 m/s 634 mmHg 43%
    03:00 +20°C° 0 mm 1 m/s 634 mmHg 43%
    04:00 +21°C° 0 mm 1 m/s 634 mmHg 41%
    05:00 +22°C° 0 mm 1 m/s 635 mmHg 39%
    06:00 +23°C° 0 mm 1 m/s 635 mmHg 37%
    07:00 +25°C° 0 mm 2 m/s 636 mmHg 33%
    08:00 +28°C° 0 mm 2 m/s 636 mmHg 28%
    09:00 +30°C° 0 mm 3 m/s 637 mmHg 24%
    10:00 +31°C° 0 mm 3 m/s 637 mmHg 23%
    11:00 +33°C° 0 mm 3 m/s 637 mmHg 22%
    12:00 +34°C° 0 mm 4 m/s 637 mmHg 21%
    13:00 +34°C° 0 mm 4 m/s 637 mmHg 21%
    14:00 +34°C° 0 mm 4 m/s 636 mmHg 22%
    15:00 +34°C° 0 mm 4 m/s 636 mmHg 22%
    16:00 +31°C° 0 mm 3 m/s 636 mmHg 26%
    17:00 +29°C° 0 mm 3 m/s 636 mmHg 29%
    18:00 +28°C° 0 mm 3 m/s 636 mmHg 32%
    19:00 +26°C° 0 mm 2 m/s 636 mmHg 38%
    20:00 +24°C° 0 mm 2 m/s 636 mmHg 43%
    21:00 +22°C° 0 mm 1 m/s 635 mmHg 48%
    22:00 +22°C° 0 mm 1 m/s 635 mmHg 47%
    23:00 +21°C° 0 mm 1 m/s 636 mmHg 47%
    Arată mai mult